Location: *
(46.1200°N, 11.2700°E)
Time: 02:33:50
(UTC+00:00)

Cosmos 44 Rocket - Pass Details

Date: 02 March 2021
Orbit: 636 x 754 km, 65.1° (Epoch: 20 April)

Event Time Altitude Azimuth Distance (km) Brightness Sun altitude
Rises 17:38:58 0° 325° (NW) 3,207 7.2 -7.1°
Reaches altitude 10° 17:41:24 10° 330° (NNW) 2,285 6.4 -7.5°
Maximum altitude 17:46:36 59° 50° (NE) 870 3.6 -8.4°
Drops below altitude 10° 17:51:44 10° 130° (SE) 2,261 5.5 -9.3°
Enters shadow 17:53:24 - 133° (SE) 2,895 6.1 -9.6°
